| time (UTC) | temp F | wind direction | speed knots | gust knots | rain 1hr in | rain 24hr in | rain mn in | humidity % | barometer mb |
| 20260504050010 | 45 | 242 | 0.0 | 0.0 | 0.00 | 0.00 | 0.00 | 68 | 1013.6 |
| 20260504045505 | 45 | 242 | 0.0 | 0.9 | 0.00 | 0.00 | 0.00 | 68 | 1013.7 |
| 20260504045005 | 45 | 242 | 0.0 | 0.0 | 0.00 | 0.00 | 0.00 | 68 | 1013.7 |
| 20260504044505 | 46 | 242 | 0.0 | 0.0 | 0.00 | 0.00 | 0.00 | 68 | 1013.7 |
| 20260504044005 | 46 | 242 | 0.0 | 0.0 | 0.00 | 0.00 | 0.00 | 68 | 1013.7 |
| 20260504043506 | 46 | 242 | 0.0 | 0.0 | 0.00 | 0.00 | 0.00 | 67 | 1013.6 |
| 20260504043010 | 46 | 242 | 0.0 | 0.0 | 0.00 | 0.00 | 0.00 | 67 | 1013.5 |
| 20260504042505 | 46 | 242 | 0.0 | 1.7 | 0.00 | 0.00 | 0.00 | 67 | 1013.5 |
| 20260504042005 | 46 | 242 | 0.0 | 1.7 | 0.00 | 0.00 | 0.00 | 67 | 1013.5 |
| 20260504041504 | 46 | 242 | 0.9 | 1.7 | 0.00 | 0.00 | 0.00 | 67 | 1013.5 |
| 20260504041005 | 46 | 242 | 0.0 | 0.9 | 0.00 | 0.00 | 0.00 | 67 | 1013.4 |
| 20260504040505 | 46 | 242 | 0.0 | 1.7 | 0.00 | 0.00 | 0.00 | 67 | 1013.4 |
| 20260504040010 | 46 | 243 | 0.9 | 1.7 | 0.00 | 0.00 | 0.00 | 66 | 1013.4 |
| 20260504035505 | 46 | 243 | 0.9 | 1.7 | 0.00 | 0.00 | 0.00 | 67 | 1013.4 |
| 20260504035004 | 46 | 242 | 0.9 | 2.6 | 0.00 | 0.00 | 0.00 | 67 | 1013.3 |
| 20260504034504 | 46 | 239 | 0.0 | 0.9 | 0.00 | 0.00 | 0.00 | 66 | 1013.3 |
| 20260504034005 | 46 | 239 | 0.9 | 1.7 | 0.00 | 0.00 | 0.00 | 67 | 1013.3 |
| 20260504033504 | 46 | 241 | 0.0 | 2.6 | 0.00 | 0.00 | 0.00 | 67 | 1013.2 |
| 20260504032004 | 47 | 242 | 0.0 | 0.0 | 0.00 | 0.00 | 0.00 | 66 | 1013.1 |
| 20260504031504 | 47 | 242 | 0.0 | 0.0 | 0.00 | 0.00 | 0.00 | 66 | 1013.1 |
| 20260504031005 | 47 | 242 | 0.0 | 0.0 | 0.00 | 0.00 | 0.00 | 65 | 1013.0 |
| 20260504030505 | 47 | 242 | 0.0 | 0.0 | 0.00 | 0.00 | 0.00 | 65 | 1013.0 |
| 20260504030010 | 48 | 242 | 0.0 | 0.0 | 0.00 | 0.00 | 0.00 | 64 | 1013.0 |
| 20260504025505 | 48 | 242 | 0.0 | 0.0 | 0.00 | 0.00 | 0.00 | 64 | 1013.1 |
| 20260504025005 | 48 | 242 | 0.0 | 0.0 | 0.00 | 0.00 | 0.00 | 62 | 1013.1 |
| 20260504024005 | 49 | 242 | 0.0 | 0.0 | 0.00 | 0.00 | 0.00 | 60 | 1013.0 |
| 20260504023504 | 49 | 242 | 0.0 | 0.0 | 0.00 | 0.00 | 0.00 | 59 | 1013.0 |
| 20260504023010 | 49 | 242 | 0.0 | 0.0 | 0.00 | 0.00 | 0.00 | 58 | 1013.0 |
| 20260504022505 | 49 | 242 | 0.0 | 0.0 | 0.00 | 0.00 | 0.00 | 59 | 1013.1 |
| 20260504022005 | 49 | 242 | 0.0 | 0.0 | 0.00 | 0.00 | 0.00 | 58 | 1013.0 |
| 20260504021505 | 50 | 242 | 0.0 | 0.0 | 0.00 | 0.00 | 0.00 | 57 | 1013.0 |
| 20260504021004 | 50 | 242 | 0.0 | 0.0 | 0.00 | 0.00 | 0.00 | 57 | 1013.0 |
| 20260504020505 | 50 | 242 | 0.0 | 0.0 | 0.00 | 0.00 | 0.00 | 57 | 1013.0 |
| 20260504020010 | 50 | 242 | 0.0 | 0.0 | 0.00 | 0.00 | 0.00 | 56 | 1012.9 |
| 20260504015505 | 50 | 242 | 0.0 | 0.0 | 0.00 | 0.00 | 0.00 | 56 | 1012.9 |
| 20260504015006 | 51 | 242 | 0.0 | 0.0 | 0.00 | 0.00 | 0.00 | 56 | 1012.8 |
| 20260504014005 | 51 | 242 | 0.0 | 0.0 | 0.00 | 0.00 | 0.00 | 53 | 1012.9 |
| 20260504013504 | 52 | 242 | 0.0 | 0.0 | 0.00 | 0.00 | 0.00 | 51 | 1012.8 |
| 20260504013010 | 52 | 242 | 0.0 | 0.0 | 0.00 | 0.00 | 0.00 | 51 | 1012.8 |
| 20260504012504 | 52 | 242 | 0.0 | 0.0 | 0.00 | 0.00 | 0.00 | 52 | 1012.8 |
| 20260504012004 | 52 | 242 | 0.0 | 0.0 | 0.00 | 0.00 | 0.00 | 52 | 1012.8 |
| 20260504011505 | 53 | 242 | 0.0 | 0.0 | 0.00 | 0.00 | 0.00 | 50 | 1012.7 |
| 20260504010505 | 53 | 242 | 0.0 | 0.0 | 0.00 | 0.00 | 0.00 | 47 | 1012.6 |
| 20260504010010 | 54 | 242 | 0.0 | 0.0 | 0.00 | 0.00 | 0.00 | 49 | 1012.7 |
| 20260504005504 | 54 | 242 | 0.0 | 0.0 | 0.00 | 0.00 | 0.00 | 46 | 1012.6 |
| 20260504005004 | 54 | 242 | 0.0 | 0.0 | 0.00 | 0.00 | 0.00 | 46 | 1012.5 |
| 20260504004504 | 54 | 242 | 0.0 | 0.0 | 0.00 | 0.00 | 0.00 | 45 | 1012.4 |
| 20260504003504 | 55 | 242 | 0.0 | 0.9 | 0.00 | 0.00 | 0.00 | 43 | 1012.3 |
| 20260504003009 | 55 | 242 | 0.9 | 1.7 | 0.00 | 0.00 | 0.00 | 42 | 1012.4 |
| 20260504002005 | 56 | 242 | 0.0 | 0.0 | 0.00 | 0.00 | 0.00 | 43 | 1012.3 |
| 20260504001504 | 56 | 242 | 0.0 | 0.0 | 0.00 | 0.00 | 0.00 | 41 | 1012.1 |
| 20260504001004 | 57 | 242 | 0.0 | 0.0 | 0.00 | 0.00 | 0.00 | 40 | 1012.1 |
| 20260504000505 | 57 | 242 | 0.0 | 0.0 | 0.00 | 0.00 | 0.00 | 40 | 1012.1 |
| 20260503235004 | 59 | 242 | 0.9 | 2.6 | 0.00 | 0.00 | 0.00 | 37 | 1012.0 |
| 20260503234004 | 59 | 233 | 2.6 | 4.3 | 0.00 | 0.00 | 0.00 | 35 | 1011.9 |
| 20260503233504 | 59 | 274 | 0.0 | 1.7 | 0.00 | 0.00 | 0.00 | 36 | 1011.8 |
| 20260503233010 | 60 | 274 | 0.0 | 0.9 | 0.00 | 0.00 | 0.00 | 37 | 1011.7 |
| 20260503232504 | 60 | 274 | 0.9 | 0.9 | 0.00 | 0.00 | 0.00 | 36 | 1011.7 |
| 20260503232005 | 61 | 274 | 1.7 | 2.6 | 0.00 | 0.00 | 0.00 | 34 | 1011.6 |
| 20260503231004 | 61 | 278 | 0.0 | 2.6 | 0.00 | 0.00 | 0.00 | 34 | 1011.6 |
| 20260503230010 | 62 | 152 | 1.7 | 5.2 | 0.00 | 0.00 | 0.00 | 33 | 1011.7 |
| 20260503225504 | 62 | 260 | 0.9 | 1.7 | 0.00 | 0.00 | 0.00 | 32 | 1011.7 |
| 20260503225005 | 62 | 261 | 1.7 | 4.3 | 0.00 | 0.00 | 0.00 | 31 | 1011.6 |
| 20260503224504 | 62 | 235 | 1.7 | 7.8 | 0.00 | 0.00 | 0.00 | 30 | 1011.7 |
| 20260503224005 | 63 | 294 | 3.5 | 8.7 | 0.00 | 0.00 | 0.00 | 30 | 1011.8 |
| 20260503223505 | 63 | 349 | 0.9 | 2.6 | 0.00 | 0.00 | 0.00 | 32 | 1011.7 |
| 20260503223011 | 63 | 11 | 1.7 | 6.1 | 0.00 | 0.00 | 0.00 | 31 | 1011.6 |
| 20260503222505 | 63 | 282 | 7.0 | 11.3 | 0.00 | 0.00 | 0.00 | 29 | 1011.7 |
| 20260503221505 | 64 | 274 | 2.6 | 8.7 | 0.00 | 0.00 | 0.00 | 29 | 1011.7 |
| 20260503221004 | 64 | 268 | 2.6 | 6.1 | 0.00 | 0.00 | 0.00 | 28 | 1011.7 |
| 20260503220504 | 65 | 314 | 1.7 | 5.2 | 0.00 | 0.00 | 0.00 | 29 | 1011.7 |
| 20260503220010 | 65 | 170 | 2.6 | 6.1 | 0.00 | 0.00 | 0.00 | 28 | 1011.6 |
| 20260503215505 | 65 | 211 | 1.7 | 10.4 | 0.00 | 0.00 | 0.00 | 28 | 1011.7 |
| 20260503215004 | 65 | 273 | 5.2 | 8.7 | 0.00 | 0.00 | 0.00 | 27 | 1011.6 |
| 20260503214505 | 65 | 325 | 5.2 | 7.8 | 0.00 | 0.00 | 0.00 | 28 | 1011.6 |
| 20260503214004 | 65 | 336 | 5.2 | 10.4 | 0.00 | 0.00 | 0.00 | 27 | 1011.7 |
| 20260503213009 | 65 | 287 | 7.8 | 11.3 | 0.00 | 0.00 | 0.00 | 27 | 1011.6 |
| 20260503212504 | 65 | 349 | 7.8 | 10.4 | 0.00 | 0.00 | 0.00 | 27 | 1011.5 |
| 20260503212004 | 65 | 352 | 5.2 | 13.9 | 0.00 | 0.00 | 0.00 | 28 | 1011.6 |
| 20260503211005 | 65 | 229 | 6.1 | 11.3 | 0.00 | 0.00 | 0.00 | 28 | 1011.5 |
| 20260503210504 | 65 | 245 | 5.2 | 11.3 | 0.00 | 0.00 | 0.00 | 28 | 1011.5 |
| 20260503210010 | 65 | 216 | 2.6 | 5.2 | 0.00 | 0.00 | 0.00 | 29 | 1011.7 |
| 20260503205005 | 65 | 339 | 3.5 | 15.6 | 0.00 | 0.00 | 0.00 | 28 | 1011.7 |
| 20260503204504 | 65 | 265 | 2.6 | 8.7 | 0.00 | 0.00 | 0.00 | 30 | 1011.7 |
| 20260503204004 | 64 | 276 | 2.6 | 11.3 | 0.00 | 0.00 | 0.00 | 31 | 1011.9 |
| 20260503203504 | 64 | 245 | 3.5 | 17.4 | 0.00 | 0.00 | 0.00 | 29 | 1011.8 |
| 20260503203011 | 64 | 327 | 8.7 | 17.4 | 0.00 | 0.00 | 0.00 | 29 | 1011.9 |
| 20260503202504 | 64 | 297 | 5.2 | 12.2 | 0.00 | 0.00 | 0.00 | 29 | 1012.0 |
| 20260503200010 | 63 | 262 | 6.1 | 15.6 | 0.00 | 0.00 | 0.00 | 32 | 1012.1 |
| 20260503194504 | 62 | 236 | 6.1 | 12.2 | 0.00 | 0.00 | 0.00 | 31 | 1012.4 |
| 20260503194004 | 62 | 335 | 6.1 | 13.0 | 0.00 | 0.00 | 0.00 | 32 | 1012.6 |
| 20260503193505 | 62 | 291 | 5.2 | 13.0 | 0.00 | 0.00 | 0.00 | 35 | 1012.6 |
| 20260503193010 | 61 | 187 | 3.5 | 8.7 | 0.00 | 0.00 | 0.00 | 34 | 1012.6 |
| 20260503192504 | 61 | 280 | 5.2 | 13.0 | 0.00 | 0.00 | 0.00 | 32 | 1012.7 |
| 20260503192004 | 62 | 277 | 5.2 | 13.0 | 0.00 | 0.00 | 0.00 | 32 | 1012.8 |
| 20260503191504 | 63 | 237 | 6.1 | 11.3 | 0.00 | 0.00 | 0.00 | 31 | 1012.8 |
| 20260503190504 | 63 | 305 | 7.8 | 13.0 | 0.00 | 0.00 | 0.00 | 32 | 1012.9 |
| 20260503185504 | 62 | 295 | 4.3 | 8.7 | 0.00 | 0.00 | 0.00 | 32 | 1013.0 |
| 20260503185004 | 62 | 307 | 6.1 | 13.9 | 0.00 | 0.00 | 0.00 | 32 | 1013.0 |
| 20260503184504 | 62 | 316 | 7.8 | 14.8 | 0.00 | 0.00 | 0.00 | 32 | 1013.1 |
| 20260503184005 | 62 | 330 | 7.0 | 11.3 | 0.00 | 0.00 | 0.00 | 33 | 1013.1 |
| 20260503183504 | 62 | 233 | 7.8 | 13.9 | 0.00 | 0.00 | 0.00 | 32 | 1013.2 |
| 20260503183009 | 62 | 290 | 7.8 | 12.2 | 0.00 | 0.00 | 0.00 | 33 | 1013.2 |
| 20260503182505 | 61 | 15 | 5.2 | 11.3 | 0.00 | 0.00 | 0.00 | 34 | 1013.3 |
| 20260503182006 | 60 | 314 | 4.3 | 10.4 | 0.00 | 0.00 | 0.00 | 33 | 1013.5 |
| 20260503181505 | 60 | 41 | 6.1 | 14.8 | 0.00 | 0.00 | 0.00 | 33 | 1013.4 |
| 20260503181004 | 60 | 324 | 10.4 | 19.1 | 0.00 | 0.00 | 0.00 | 33 | 1013.6 |
| 20260503180504 | 60 | 260 | 7.0 | 13.9 | 0.00 | 0.00 | 0.00 | 32 | 1013.5 |
| 20260503180009 | 60 | 299 | 5.2 | 14.8 | 0.00 | 0.00 | 0.00 | 36 | 1013.5 |
| 20260503175004 | 60 | 310 | 7.8 | 14.8 | 0.00 | 0.00 | 0.00 | 35 | 1013.7 |
| 20260503174504 | 60 | 314 | 9.6 | 13.0 | 0.00 | 0.00 | 0.00 | 34 | 1013.7 |
| 20260503174004 | 60 | 347 | 8.7 | 13.0 | 0.00 | 0.00 | 0.00 | 34 | 1013.8 |
| 20260503173504 | 60 | 338 | 4.3 | 7.8 | 0.00 | 0.00 | 0.00 | 36 | 1013.8 |
| 20260503173011 | 60 | 294 | 4.3 | 13.9 | 0.00 | 0.00 | 0.00 | 34 | 1013.7 |
| 20260503172504 | 59 | 343 | 9.6 | 14.8 | 0.00 | 0.00 | 0.00 | 34 | 1013.7 |
| 20260503172004 | 59 | 258 | 4.3 | 8.7 | 0.00 | 0.00 | 0.00 | 36 | 1013.7 |
| 20260503171504 | 59 | 339 | 5.2 | 11.3 | 0.00 | 0.00 | 0.00 | 35 | 1013.8 |
| 20260503151004 | 54 | 307 | 7.8 | 11.3 | 0.00 | 0.00 | 0.00 | 38 | 1014.4 |
| 20260503150504 | 54 | 282 | 9.6 | 18.2 | 0.00 | 0.00 | 0.00 | 37 | 1014.4 |
| 20260503131006 | 48 | 339 | 8.7 | 17.4 | 0.00 | 0.00 | 0.00 | 51 | 1014.7 |
| 20260503130506 | 48 | 327 | 9.6 | 15.6 | 0.00 | 0.00 | 0.00 | 51 | 1014.9 |
| 20260503110505 | 42 | 300 | 3.5 | 7.8 | 0.00 | 0.00 | 0.00 | 67 | 1013.8 |
| 20260503090504 | 41 | 323 | 1.7 | 7.0 | 0.00 | 0.00 | 0.00 | 71 | 1012.3 |
| 20260503081505 | 42 | 324 | 0.0 | 1.7 | 0.00 | 0.00 | 0.00 | 71 | 1012.0 |
| 20260503080505 | 42 | 286 | 0.9 | 7.0 | 0.00 | 0.00 | 0.00 | 71 | 1011.9 |
| 20260503072505 | 42 | 289 | 3.5 | 7.0 | 0.00 | 0.00 | 0.00 | 71 | 1011.5 |
| 20260503071506 | 42 | 305 | 0.0 | 7.8 | 0.00 | 0.00 | 0.00 | 71 | 1011.4 |
| 20260503071006 | 42 | 336 | 0.9 | 6.1 | 0.00 | 0.00 | 0.00 | 71 | 1011.4 |